Wind_Speed
9 6 4 7 10 9 12 19 22 23 26 23 23 24 20 21 23 25 29 23 24 24 21 16 20 22 21 21 23 25 24 21
3 4 2 4 9 13 12 13 13 19 19 18 17 16 14 10 11 15 12 15 19 20 18 18 19 20 22 24 26 23 23 24
4 3 4 3 4 7 10 8 10 12 13 15 15 15 15 14 12 11 14 16 18 18 18 19 19 21 23 24 26 28 25 25
6 5 4 4 5 5 7 8 8 11 13 12 11 8 10 11 11 9 14 14 17 19 18 15 19 23 24 28 29 26 28 29
7 7 7 6 6 5 7 8 6 7 8 11 13 14 14 12 12 13 15 16 16 19 19 20 25 24 29 30 27 26 29 30
5 8 8 9 7 7 6 5 6 6 5 6 9 10 12 12 10 10 10 12 11 16 18 21 25 26 29 26 27 28 31 30
5 7 6 5 6 5 5 6 7 8 7 8 10 11 11 12 11 11 9 10 9 14 17 22 24 28 28 28 26 29 30 35
11 9 8 7 7 7 6 7 9 10 8 7 8 8 9 9 13 13 9 10 15 17 20 21 27 32 31 33 33 34 27 31
9 12 12 8 8 10 10 9 9 9 9 11 12 13 13 12 13 17 17 15 17 21 22 24 30 30 33 34 34 35 29 32
10 11 14 14 12 11 15 12 11 10 13 17 18 18 18 18 18 19 21 21 23 26 28 26 27 38 33 36 36 29 28 31
19 15 13 13 14 14 14 14 10 13 15 15 18 23 21 25 28 25 23 25 27 31 33 34 34 36 35 35 32 27 29 30
15 19 13 12 14 16 16 18 17 16 18 21 26 31 30 31 29 37 29 34 37 39 42 39 40 32 32 28 27 29 29 32
17 20 20 16 15 17 18 18 19 20 23 26 30 32 34 35 40 38 39 37 37 35 34 43 36 29 31 27 27 31 32 33
17 20 22 21 23 22 23 23 24 25 25 25 25 26 30 31 22 20 24 26 25 24 24 28 28 20 23 28 30 33 34 35
30 28 20 25 21 20 20 21 24 26 25 24 26 27 26 29 27 23 22 23 25 26 28 24 26 27 28 28 32 35 36 36
25 25 26 29 30 20 18 19 23 26 29 28 29 29 30 30 27 26 24 26 28 27 29 29 30 33 32 35 38 38 37 38
26 26 28 23 24 28 29 30 27 31 31 30 32 32 32 32 29 28 27 29 29 30 32 33 36 35 36 39 39 38 39 41
33 31 31 27 28 34 33 25 25 25 28 30 33 33 33 32 32 32 31 34 34 33 33 36 39 40 39 39 39 41 44 47
36 32 32 33 31 30 31 33 29 27 30 34 36 35 36 36 37 38 37 36 36 38 39 40 40 40 41 42 43 46 49 53
Wind_Direction
67 61 31 88 99 143 197 217 212 211 220 209 215 226 221 231 240 246 240 238 244 234 218 199 176 183 195 201 204 210 220 229
99 101 88 89 108 109 105 129 166 188 182 175 175 172 176 179 190 186 178 203 207 189 184 173 182 198 206 213 219 222 232 239
229 181 187 182 137 131 132 140 139 143 153 153 151 151 160 167 159 158 157 175 178 181 185 199 204 214 218 221 225 230 239 248
229 206 213 201 183 157 144 145 166 162 153 151 146 151 170 172 168 171 183 196 200 204 202 209 220 228 228 230 234 241 249 254
223 187 162 177 167 167 151 148 161 165 155 153 158 169 181 181 183 192 197 212 223 215 210 217 227 228 233 237 244 252 256 264
221 208 179 178 195 199 207 208 221 209 189 199 200 191 192 188 188 198 204 214 220 222 232 230 233 234 239 240 248 258 262 266
214 233 189 193 191 207 214 226 237 232 226 231 233 224 223 221 216 212 212 228 239 241 244 246 244 244 242 245 247 254 257 264
208 211 224 207 213 226 226 227 238 249 253 250 246 250 237 235 235 234 239 242 234 234 243 251 253 250 250 246 246 252 257 261
223 235 227 232 256 262 242 252 258 265 264 261 262 260 258 256 254 251 254 257 255 254 250 260 267 275 245 251 241 251 257 264
234 236 243 255 257 258 239 265 266 259 252 251 257 265 268 261 256 262 263 257 248 263 264 267 275 248 263 255 257 260 263 267
231 225 228 241 250 247 250 270 260 254 258 270 274 262 267 285 260 254 259 267 265 260 258 259 255 264 250 246 252 252 271 281
255 248 237 235 239 256 258 260 271 273 267 265 274 277 278 278 283 268 262 266 269 269 265 262 259 246 239 253 272 288 288 287
270 256 252 248 261 264 267 267 273 268 268 267 273 278 276 275 277 275 267 265 268 268 286 249 262 256 256 273 284 279 281 285
245 269 257 249 278 269 268 264 265 267 269 272 274 277 275 287 299 303 256 275 289 295 289 292 307 292 276 269 277 285 289 287
269 270 251 276 270 239 259 262 265 269 270 277 276 275 278 281 284 287 290 290 289 288 288 292 292 285 282 287 288 286 284 284
266 268 260 272 283 250 258 270 272 270 270 270 274 280 282 281 277 283 288 285 284 284 285 285 285 286 287 285 285 281 280 285
269 264 269 265 248 259 273 274 269 261 267 273 275 277 278 280 280 281 281 281 280 279 281 287 289 285 282 278 276 280 285 290
271 277 274 261 267 272 278 270 266 267 272 274 276 277 278 276 276 275 277 278 278 278 281 278 277 276 279 280 282 286 289 294
263 272 273 262 267 274 268 266 270 277 281 279 280 281 281 281 276 274 273 275 278 281 282 281 281 283 285 285 286 289 292 296
Height
5730 5729 5731 5726 5723 5723 5723 5726 5730 5731 5733 5735 5739 5741 5743 5746 5748 5750 5752 5751 5753 5756 5758 5761 5762 5767 5771 5773 5776 5777 5778 5780
5732 5732 5731 5731 5728 5726 5728 5728 5728 5730 5732 5733 5735 5737 5740 5741 5744 5747 5744 5748 5752 5755 5758 5759 5762 5764 5767 5771 5773 5773 5775 5776
5733 5732 5732 5732 5732 5729 5729 5730 5731 5730 5733 5734 5734 5735 5738 5740 5741 5742 5743 5748 5752 5755 5756 5758 5759 5762 5763 5766 5768 5768 5770 5772
5734 5732 5731 5732 5732 5732 5731 5731 5734 5733 5732 5732 5733 5734 5738 5738 5740 5743 5745 5748 5751 5751 5753 5754 5757 5760 5761 5763 5764 5765 5766 5766
5734 5733 5731 5732 5731 5732 5732 5734 5735 5735 5733 5733 5733 5736 5739 5738 5740 5743 5744 5745 5746 5745 5748 5749 5754 5754 5758 5759 5760 5759 5759 5760
5734 5733 5731 5732 5733 5733 5733 5734 5736 5735 5734 5736 5737 5736 5739 5740 5739 5741 5743 5744 5742 5744 5745 5748 5752 5751 5754 5755 5754 5753 5752 5752
5732 5733 5731 5732 5732 5734 5732 5733 5733 5734 5734 5734 5736 5739 5739 5737 5737 5738 5738 5740 5738 5743 5745 5747 5744 5748 5749 5748 5747 5747 5746 5745
5728 5729 5730 5730 5730 5731 5732 5733 5733 5733 5734 5735 5736 5735 5735 5734 5734 5735 5735 5736 5738 5739 5741 5740 5741 5741 5740 5741 5741 5739 5739 5738
5724 5725 5726 5727 5727 5728 5729 5729 5729 5730 5730 5731 5731 5732 5731 5729 5731 5730 5732 5731 5733 5734 5733 5735 5736 5734 5734 5732 5731 5730 5731 5730
5721 5721 5722 5722 5723 5724 5724 5724 5724 5726 5727 5727 5727 5727 5728 5728 5725 5726 5724 5726 5727 5727 5727 5727 5726 5725 5726 5726 5726 5724 5724 5721
5719 5717 5717 5718 5718 5719 5720 5721 5721 5721 5721 5723 5723 5721 5720 5719 5719 5719 5719 5718 5718 5719 5719 5719 5717 5711 5718 5717 5716 5715 5715 5713
5715 5715 5713 5713 5714 5715 5715 5716 5716 5716 5716 5715 5714 5712 5712 5711 5711 5710 5709 5710 5711 5710 5710 5709 5710 5706 5707 5708 5708 5706 5706 5705
5709 5710 5710 5709 5710 5711 5711 5710 5710 5710 5710 5708 5707 5704 5702 5704 5704 5702 5703 5701 5702 5698 5698 5692 5702 5701 5700 5698 5699 5700 5698 5695
5703 5705 5705 5705 5705 5705 5705 5705 5704 5703 5702 5701 5701 5700 5698 5696 5694 5693 5694 5693 5693 5691 5691 5690 5690 5689 5693 5693 5691 5689 5686 5684
5695 5697 5698 5699 5699 5699 5698 5698 5697 5697 5696 5694 5694 5694 5693 5692 5691 5689 5688 5685 5686 5686 5685 5683 5685 5684 5685 5680 5679 5677 5676 5673
5686 5689 5691 5693 5693 5692 5691 5691 5691 5690 5688 5687 5686 5686 5685 5684 5683 5681 5678 5679 5679 5679 5677 5676 5676 5674 5671 5669 5669 5667 5665 5662
5678 5681 5683 5685 5686 5685 5685 5683 5683 5682 5680 5679 5678 5677 5676 5675 5673 5672 5672 5671 5670 5668 5667 5664 5663 5662 5661 5659 5658 5654 5651 5647
5670 5670 5674 5677 5678 5678 5676 5674 5674 5673 5673 5672 5671 5670 5668 5667 5666 5665 5664 5663 5661 5660 5658 5657 5655 5654 5650 5647 5644 5641 5639 5636
5662 5664 5665 5667 5667 5668 5668 5667 5666 5665 5664 5663 5662 5660 5659 5658 5657 5656 5656 5654 5653 5651 5649 5647 5644 5641 5639 5636 5634 5631 5627 5624